Location: Vulcan
(50.4000°N, 113.2500°W)
Time: 15:05:14
(UTC-06:00)

ISS - Visible Passes

Search period start: 17 October 2019 00:00
Search period end: 27 October 2019 00:00
Orbit: 411 x 421 km, 51.6° (Epoch: 17 October)

Date Brightness Start Highest point End Pass type
(mag) Time Alt. Az. Time Alt. Az. Time Alt. Az.
23 Oct -0.6 07:22:21 10° SSE 07:23:56 13° SE 07:25:31 10° ESE visible
25 Oct -1.6 07:20:17 10° SSW 07:23:08 26° SE 07:26:01 10° E visible
26 Oct -1.2 06:32:22 10° S 06:34:44 18° SE 06:37:07 10° E visible
